When you browse on this site, cookies collect data to enhance your experience and personalize the content and advertising you see.
Visit our Privacy Policy to learn more. By continuing to use the site, you agree to this use of cookies and data.
  • In Portugal
  • List of Countries
  • For 7 days
  • Water Temperature
  • Satellite Maps
  • Weather Map
  • Weather Widgets
  • user-avatar
    Login

    Hourly Weather Rovnoe

    Today, 24 April, Wednesday

    Time Temperature Precipitation Wind Pressure Humidity
    00:00 +11°C° 0 mm 1 mps 760 mmHg 47%
    01:00 +11°C° 0 mm 1 mps 760 mmHg 48%
    02:00 +10°C° 0 mm 0 mps 760 mmHg 42%
    03:00 +9°C° 0 mm 0 mps 760 mmHg 43%
    04:00 +9°C° 0 mm 0 mps 760 mmHg 44%
    05:00 +9°C° 0 mm 0 mps 760 mmHg 45%
    06:00 +12°C° 0 mm 1 mps 760 mmHg 43%
    07:00 +14°C° 0 mm 1 mps 760 mmHg 40%
    08:00 +16°C° 0 mm 1 mps 760 mmHg 38%
    09:00 +18°C° 0 mm 2 mps 760 mmHg 34%
    10:00 +19°C° 0 mm 2 mps 760 mmHg 29%
    11:00 +21°C° 0 mm 3 mps 760 mmHg 25%
    12:00 +21°C° 0 mm 3 mps 760 mmHg 25%
    13:00 +22°C° 0 mm 3 mps 759 mmHg 25%
    14:00 +22°C° 0 mm 3 mps 759 mmHg 24%
    15:00 +22°C° 0 mm 3 mps 759 mmHg 26%
    16:00 +21°C° 0 mm 3 mps 759 mmHg 28%
    17:00 +21°C° 0 mm 3 mps 758 mmHg 30%
    18:00 +19°C° 0 mm 2 mps 758 mmHg 35%
    19:00 +17°C° 0 mm 2 mps 758 mmHg 40%
    20:00 +15°C° 0 mm 2 mps 758 mmHg 45%
    21:00 +14°C° 0 mm 2 mps 758 mmHg 46%
    22:00 +14°C° 0 mm 2 mps 759 mmHg 48%
    23:00 +13°C° 0 mm 1 mps 759 mmHg 49%

    Tomorrow, 25 April, Thursday

    Time Temperature Precipitation Wind Pressure Humidity
    00:00 +12°C° 0 mm 1 mps 759 mmHg 51%
    01:00 +12°C° 0 mm 1 mps 759 mmHg 52%
    02:00 +11°C° 0 mm 1 mps 759 mmHg 54%
    03:00 +11°C° 0 mm 1 mps 759 mmHg 56%
    04:00 +11°C° 0 mm 1 mps 759 mmHg 57%
    05:00 +10°C° 0 mm 1 mps 759 mmHg 59%
    06:00 +12°C° 0 mm 2 mps 759 mmHg 55%
    07:00 +14°C° 0 mm 2 mps 759 mmHg 50%
    08:00 +16°C° 0 mm 2 mps 759 mmHg 46%
    09:00 +18°C° 0 mm 3 mps 759 mmHg 41%
    10:00 +20°C° 0 mm 4 mps 758 mmHg 35%
    11:00 +21°C° 0 mm 4 mps 758 mmHg 30%
    12:00 +22°C° 0 mm 5 mps 758 mmHg 29%
    13:00 +22°C° 0 mm 5 mps 758 mmHg 29%
    14:00 +22°C° 0 mm 5 mps 757 mmHg 28%
    15:00 +22°C° 0 mm 5 mps 757 mmHg 30%
    16:00 +22°C° 0 mm 4 mps 756 mmHg 32%
    17:00 +21°C° 0 mm 4 mps 756 mmHg 34%
    18:00 +19°C° 0 mm 3 mps 756 mmHg 40%
    19:00 +17°C° 0 mm 3 mps 756 mmHg 46%
    20:00 +15°C° 0 mm 2 mps 756 mmHg 53%
    21:00 +14°C° 0 mm 2 mps 756 mmHg 55%
    22:00 +14°C° 0 mm 2 mps 756 mmHg 58%
    23:00 +13°C° 0 mm 2 mps 756 mmHg 60%

    Day after tomorrow, 26 April, Friday

    Time Temperature Precipitation Wind Pressure Humidity
    00:00 +12°C° 0 mm 2 mps 756 mmHg 62%
    01:00 +12°C° 0 mm 2 mps 756 mmHg 63%
    02:00 +12°C° 0 mm 2 mps 756 mmHg 65%
    03:00 +10°C° 0 mm 2 mps 755 mmHg 66%
    04:00 +10°C° 0 mm 2 mps 755 mmHg 68%
    05:00 +10°C° 0 mm 2 mps 755 mmHg 70%
    06:00 +12°C° 0 mm 3 mps 755 mmHg 63%
    07:00 +14°C° 0 mm 3 mps 755 mmHg 57%
    08:00 +17°C° 0 mm 4 mps 755 mmHg 51%
    09:00 +17°C° 0 mm 5 mps 755 mmHg 46%
    10:00 +20°C° 0 mm 5 mps 754 mmHg 40%
    11:00 +21°C° 0 mm 6 mps 754 mmHg 35%
    12:00 +22°C° 0 mm 6 mps 754 mmHg 34%
    13:00 +22°C° 0 mm 6 mps 753 mmHg 32%
    14:00 +23°C° 0 mm 6 mps 753 mmHg 31%
    15:00 +22°C° 0 mm 5 mps 753 mmHg 32%
    16:00 +22°C° 0 mm 5 mps 752 mmHg 33%
    17:00 +21°C° 0 mm 4 mps 752 mmHg 34%
    18:00 +19°C° 0 mm 4 mps 752 mmHg 39%
    19:00 +17°C° 0 mm 3 mps 752 mmHg 44%
    20:00 +14°C° 0 mm 3 mps 752 mmHg 49%
    21:00 +14°C° 0 mm 3 mps 751 mmHg 50%
    22:00 +13°C° 0 mm 3 mps 751 mmHg 51%
    23:00 +13°C° 0 mm 4 mps 751 mmHg 52%

    27 April, Saturday

    Time Temperature Precipitation Wind Pressure Humidity
    00:00 +13°C° 0 mm 4 mps 751 mmHg 54%
    01:00 +12°C° 0 mm 4 mps 750 mmHg 57%
    02:00 +12°C° 0 mm 3 mps 750 mmHg 59%
    03:00 +12°C° 0 mm 4 mps 750 mmHg 62%
    04:00 +11°C° 0 mm 4 mps 749 mmHg 65%
    05:00 +11°C° 0 mm 4 mps 749 mmHg 69%
    06:00 +12°C° 0 mm 4 mps 749 mmHg 67%
    07:00 +13°C° 0 mm 4 mps 749 mmHg 65%
    08:00 +14°C° 0 mm 5 mps 748 mmHg 63%
    09:00 +15°C° 0 mm 5 mps 748 mmHg 61%
    10:00 +16°C° 0 mm 5 mps 748 mmHg 59%
    11:00 +16°C° 0 mm 5 mps 748 mmHg 58%
    12:00 +19°C° 0.2 mm 5 mps 747 mmHg 55%
    13:00 +20°C° 0.2 mm 5 mps 747 mmHg 53%
    14:00 +21°C° 0.2 mm 5 mps 746 mmHg 51%
    15:00 +22°C° 0 mm 5 mps 746 mmHg 52%
    16:00 +22°C° 0 mm 4 mps 745 mmHg 53%
    17:00 +23°C° 0 mm 4 mps 745 mmHg 54%
    18:00 +21°C° 1.1 mm 3 mps 745 mmHg 64%
    19:00 +19°C° 1.1 mm 3 mps 745 mmHg 75%
    20:00 +17°C° 1.1 mm 3 mps 744 mmHg 86%
    21:00 +17°C° 0.2 mm 3 mps 744 mmHg 87%
    22:00 +16°C° 0.2 mm 3 mps 744 mmHg 88%
    23:00 +16°C° 0.2 mm 3 mps 744 mmHg 89%

    28 April, Sunday

    Time Temperature Precipitation Wind Pressure Humidity
    00:00 +16°C° 0.2 mm 3 mps 744 mmHg 90%
    01:00 +16°C° 0.2 mm 3 mps 744 mmHg 91%
    02:00 +16°C° 0.2 mm 3 mps 744 mmHg 92%
    03:00 +14°C° 0 mm 3 mps 744 mmHg 93%
    04:00 +15°C° 0 mm 2 mps 744 mmHg 93%
    05:00 +14°C° 0 mm 2 mps 744 mmHg 94%
    06:00 +16°C° 0 mm 2 mps 744 mmHg 89%
    07:00 +17°C° 0 mm 2 mps 744 mmHg 83%
    08:00 +19°C° 0 mm 2 mps 745 mmHg 78%
    09:00 +20°C° 0.2 mm 2 mps 745 mmHg 71%
    10:00 +23°C° 0.2 mm 2 mps 745 mmHg 64%
    11:00 +24°C° 0.2 mm 3 mps 745 mmHg 57%
    12:00 +24°C° 1.2 mm 3 mps 745 mmHg 59%
    13:00 +22°C° 1.2 mm 3 mps 745 mmHg 61%
    14:00 +22°C° 1.2 mm 3 mps 745 mmHg 63%
    15:00 +22°C° 0.3 mm 3 mps 745 mmHg 65%
    16:00 +21°C° 0.3 mm 3 mps 745 mmHg 67%
    17:00 +21°C° 0.3 mm 3 mps 746 mmHg 69%
    18:00 +19°C° 0.1 mm 4 mps 746 mmHg 73%
    19:00 +17°C° 0.1 mm 5 mps 747 mmHg 78%
    20:00 +15°C° 0.1 mm 5 mps 747 mmHg 82%
    21:00 +14°C° 0.1 mm 6 mps 748 mmHg 82%
    22:00 +13°C° 0.1 mm 6 mps 748 mmHg 82%
    23:00 +10°C° 0.1 mm 6 mps 749 mmHg 81%

    29 April, Monday

    Time Temperature Precipitation Wind Pressure Humidity
    00:00 +9°C° 0 mm 6 mps 749 mmHg 81%
    01:00 +9°C° 0 mm 6 mps 749 mmHg 80%
    02:00 +8°C° 0 mm 5 mps 750 mmHg 80%
    03:00 +7°C° 0 mm 6 mps 750 mmHg 78%
    04:00 +7°C° 0 mm 6 mps 750 mmHg 75%
    05:00 +5°C° 0 mm 6 mps 751 mmHg 73%
    06:00 +5°C° 0 mm 6 mps 751 mmHg 70%
    07:00 +7°C° 0 mm 6 mps 751 mmHg 66%
    08:00 +6°C° 0 mm 7 mps 752 mmHg 62%
    09:00 +9°C° 0 mm 7 mps 752 mmHg 58%
    10:00 +10°C° 0 mm 7 mps 752 mmHg 54%
    11:00 +11°C° 0 mm 7 mps 753 mmHg 50%
    12:00 +11°C° 0 mm 7 mps 753 mmHg 48%
    13:00 +13°C° 0 mm 6 mps 753 mmHg 47%
    14:00 +13°C° 0 mm 6 mps 753 mmHg 45%
    15:00 +13°C° 0 mm 6 mps 753 mmHg 46%
    16:00 +13°C° 0 mm 6 mps 753 mmHg 47%
    17:00 +11°C° 0 mm 6 mps 753 mmHg 49%
    18:00 +10°C° 0 mm 5 mps 753 mmHg 52%
    19:00 +9°C° 0 mm 5 mps 753 mmHg 56%
    20:00 +7°C° 0 mm 4 mps 754 mmHg 59%
    21:00 +7°C° 0 mm 4 mps 754 mmHg 60%
    22:00 +6°C° 0 mm 4 mps 755 mmHg 60%
    23:00 +6°C° 0 mm 4 mps 755 mmHg 60%
    Show more